KE5YIM-13 Weather Reports


Display with metric or nautical units.
time (UTC)temp
F
wind
direction
speed
MPH
gust
MPH
rain 1hr
in
rain 24hr
in
rain mn
in
humidity
%
barometer
mb
20260506153212 62 195 3.0 6.0 0.00 0.00 0.00 80 1011.1
20260506152709 62 119 5.0 7.0 0.00 0.00 0.00 80 1011.4
20260506152207 62 106 2.0 7.0 0.00 0.00 0.00 81 1011.7
20260506151706 62 155 3.0 5.0 0.00 0.00 0.00 81 1011.4
20260506151202 62 277 3.0 8.0 0.00 0.00 0.00 81 1011.2
20260506150658 62 146 3.0 5.0 0.00 0.00 0.00 81 1011.1
20260506150155 62 237 4.0 8.0 0.00 0.00 0.00 82 1011.2
20260506145652 62 229 5.0 9.0 0.00 0.00 0.00 82 1011.1
20260506145149 61 203 3.0 10.0 0.00 0.00 0.00 82 1011.2
20260506144647 62 197 6.0 9.0 0.00 0.00 0.00 81 1011.2
20260506144143 62 118 3.0 11.0 0.00 0.00 0.00 81 1011.3
20260506143641 62 167 5.0 8.0 0.00 0.00 0.00 81 1011.5
20260506143139 62 177 2.0 6.0 0.00 0.00 0.00 81 1011.6
20260506142637 62 167 5.0 7.0 0.00 0.00 0.00 81 1011.3
20260506142135 62 147 3.0 10.0 0.00 0.00 0.00 81 1011.3
20260506141632 62 192 5.0 14.0 0.00 0.00 0.00 81 1011.4
20260506141130 63 217 6.0 10.0 0.00 0.00 0.00 80 1011.4
20260506140627 63 163 7.0 11.0 0.00 0.00 0.00 79 1011.2
20260506140125 63 156 7.0 8.0 0.00 0.00 0.00 80 1011.3
20260506135621 63 118 3.0 6.0 0.00 0.00 0.00 80 1011.6
20260506135118 62 162 5.0 11.0 0.00 0.00 0.00 80 1011.6
20260506134614 63 114 2.0 10.0 0.00 0.00 0.00 81 1011.6
20260506134110 63 113 3.0 6.0 0.00 0.00 0.00 80 1011.6
20260506133608 62 168 6.0 10.0 0.00 0.00 0.00 80 1011.4
20260506133104 62 108 3.0 7.0 0.00 0.00 0.00 81 1011.4
20260506132602 62 67 1.0 9.0 0.00 0.00 0.00 81 1011.3
20260506132059 62 142 1.0 7.0 0.00 0.00 0.00 82 1011.1
20260506131556 62 109 4.0 8.0 0.00 0.00 0.00 82 1011.2
20260506131052 62 174 4.0 6.0 0.00 0.00 0.00 82 1011.1
20260506130549 62 266 4.0 6.0 0.00 0.00 0.00 82 1011.4
20260506130047 62 69 1.0 7.0 0.00 0.00 0.00 82 1011.1
20260506125545 62 130 3.0 5.0 0.00 0.00 0.00 82 1011.3
20260506125042 61 265 4.0 7.0 0.00 0.00 0.00 83 1011.4
20260506124540 61 291 3.0 7.0 0.00 0.00 0.00 82 1011.5
20260506124038 61 233 5.0 9.0 0.00 0.00 0.00 82 1011.5
20260506123535 61 260 3.0 5.0 0.00 0.00 0.00 83 1011.6
20260506123033 61 138 5.0 8.0 0.00 0.00 0.00 83 1011.8
20260506122529 61 194 7.0 8.0 0.00 0.00 0.00 83 1011.9
20260506122028 61 183 5.0 9.0 0.00 0.00 0.00 83 1012.1
20260506121525 61 56 3.0 5.0 0.00 0.00 0.00 84 1012.2
20260506121021 60 189 5.0 7.0 0.00 0.00 0.00 84 1012.0
20260506120519 61 255 9.0 15.0 0.00 0.00 0.00 84 1011.9
20260506120016 60 168 3.0 6.0 0.00 0.00 0.00 85 1011.7
20260506115514 60 235 6.0 10.0 0.00 0.00 0.00 85 1011.7
20260506115012 60 120 2.0 3.0 0.00 0.00 0.00 86 1011.8
20260506114509 59 211 3.0 7.0 0.00 0.00 0.00 87 1011.6
20260506114008 59 289 2.0 5.0 0.00 0.00 0.00 88 1011.8
20260506113505 58 266 4.0 7.0 0.00 0.00 0.00 88 1011.6
20260506113002 58 234 3.0 5.0 0.00 0.00 0.00 88 1011.6
20260506112459 58 181 2.0 8.0 0.00 0.00 0.00 89 1011.8
20260506111956 58 159 1.0 5.0 0.00 0.00 0.00 89 1012.0
20260506111455 58 194 3.0 10.0 0.00 0.00 0.00 89 1011.8
20260506110951 58 253 3.0 5.0 0.00 0.00 0.00 89 1011.6
20260506110449 58 183 3.0 3.0 0.00 0.00 0.00 89 1011.7
20260506105945 58 269 4.0 8.0 0.00 0.00 0.00 90 1012.0
20260506105441 57 300 3.0 3.0 0.00 0.00 0.00 90 1012.0
20260506104939 57 113 2.0 3.0 0.00 0.00 0.00 91 1011.8
20260506104437 57 248 3.0 7.0 0.00 0.00 0.00 91 1011.7
20260506103935 57 173 2.0 3.0 0.00 0.00 0.00 91 1011.8
20260506103432 56 224 3.0 3.0 0.00 0.00 0.00 92 1011.9
20260506102929 56 221 3.0 5.0 0.00 0.00 0.00 92 1011.8
20260506102427 56 140 2.0 6.0 0.00 0.00 0.00 92 1011.7
20260506101924 56 163 1.0 6.0 0.00 0.00 0.00 92 1011.7
20260506101420 56 225 3.0 6.0 0.00 0.00 0.00 92 1011.7
20260506100918 56 250 3.0 5.0 0.00 0.00 0.00 92 1011.5
20260506100416 56 245 3.0 6.0 0.00 0.00 0.00 92 1011.6
20260506095913 56 162 3.0 5.0 0.00 0.00 0.00 92 1011.6
20260506095412 56 134 1.0 3.0 0.00 0.00 0.00 92 1011.5
20260506094908 56 237 3.0 3.0 0.00 0.00 0.00 91 1011.5
20260506094407 56 84 1.0 2.0 0.00 0.00 0.00 91 1011.5
20260506093904 56 94 2.0 3.0 0.00 0.00 0.00 91 1011.5
20260506093401 56 353 2.0 2.0 0.00 0.00 0.00 90 1011.4
20260506092859 56 124 3.0 7.0 0.00 0.00 0.00 90 1011.6
20260506092357 56 43 1.0 2.0 0.00 0.00 0.00 90 1011.6
20260506091853 56 184 2.0 3.0 0.00 0.00 0.00 90 1011.7
20260506091351 56 288 3.0 3.0 0.00 0.00 0.00 90 1011.5
20260506090848 56 225 5.0 8.0 0.00 0.00 0.00 89 1011.8
20260506090346 56 199 4.0 7.0 0.00 0.00 0.00 89 1011.7
20260506085842 57 268 4.0 8.0 0.00 0.00 0.00 89 1011.6
20260506085338 57 218 1.0 5.0 0.00 0.00 0.00 89 1011.6
20260506084835 57 255 4.0 7.0 0.00 0.00 0.00 89 1011.9
20260506084332 57 167 4.0 6.0 0.00 0.00 0.00 89 1011.9
20260506083828 57 76 2.0 6.0 0.00 0.00 0.00 89 1012.0
20260506083326 57 239 4.0 7.0 0.00 0.00 0.00 89 1012.0
20260506082823 57 107 1.0 3.0 0.00 0.00 0.00 88 1011.9
20260506082320 57 101 2.0 5.0 0.00 0.00 0.00 88 1011.9
20260506081816 57 157 3.0 5.0 0.00 0.00 0.00 88 1011.9
20260506081314 57 124 2.0 5.0 0.00 0.00 0.00 88 1012.0
20260506080812 57 261 6.0 9.0 0.00 0.00 0.00 88 1011.9
20260506080308 57 125 1.0 2.0 0.00 0.00 0.00 88 1011.8
20260506073252 57 267 3.0 6.0 0.00 0.00 0.00 87 1012.0
20260506072748 57 158 1.0 3.0 0.00 0.00 0.00 87 1011.8
20260506072246 57 272 2.0 3.0 0.00 0.00 0.00 87 1011.8
20260506071744 57 258 3.0 8.0 0.00 0.00 0.00 87 1012.1
20260506071242 57 124 2.0 3.0 0.00 0.00 0.00 86 1011.9
20260506070738 57 123 1.0 3.0 0.00 0.00 0.00 86 1011.7
20260506070235 58 273 4.0 6.0 0.00 0.00 0.00 86 1011.9
20260506062212 58 203 3.0 3.0 0.00 0.00 0.00 85 1012.0
20260506061708 58 207 3.0 5.0 0.00 0.00 0.00 85 1012.0
20260506061206 58 154 2.0 6.0 0.00 0.00 0.00 84 1011.9
20260506060705 58 206 3.0 5.0 0.00 0.00 0.00 84 1011.8
20260506060201 58 264 2.0 3.0 0.00 0.00 0.00 84 1011.9
20260506051133 60 209 2.0 5.0 0.00 0.00 0.00 81 1012.1
20260506050631 60 196 2.0 3.0 0.00 0.00 0.00 81 1012.0
20260506050128 60 138 3.0 3.0 0.00 0.00 0.00 81 1012.2
20260506045121 60 101 1.0 3.0 0.00 0.00 0.00 80 1012.2
20260506044619 61 126 2.0 5.0 0.00 0.00 0.00 80 1012.2
20260506044116 61 282 4.0 7.0 0.00 0.00 0.00 79 1012.1
20260506043613 61 149 3.0 9.0 0.00 0.00 0.00 79 1012.1
20260506043111 61 305 3.0 8.0 0.00 0.00 0.00 79 1012.0
20260506042610 61 138 4.0 5.0 0.00 0.00 0.00 79 1012.3
20260506042107 61 244 3.0 5.0 0.00 0.00 0.00 78 1012.3
20260506041606 62 181 4.0 7.0 0.00 0.00 0.00 78 1012.3
20260506041102 62 263 5.0 7.0 0.00 0.00 0.00 78 1012.2
20260506040600 62 197 3.0 11.0 0.00 0.00 0.00 77 1012.3
20260506040056 62 177 5.0 8.0 0.00 0.00 0.00 77 1012.0
20260506035553 62 240 3.0 6.0 0.00 0.00 0.00 77 1012.1
20260506035050 62 187 3.0 3.0 0.00 0.00 0.00 77 1012.4
20260506034547 62 115 2.0 3.0 0.00 0.00 0.00 77 1012.1
20260506034044 62 192 2.0 7.0 0.00 0.00 0.00 77 1012.0
20260506033541 62 245 4.0 7.0 0.00 0.00 0.00 77 1012.1
20260506033038 62 238 4.0 7.0 0.00 0.00 0.00 77 1011.9
20260506032536 62 119 2.0 3.0 0.00 0.00 0.00 77 1012.0
20260506032032 62 109 5.0 8.0 0.00 0.00 0.00 76 1012.1
20260506031530 62 140 3.0 8.0 0.00 0.00 0.00 76 1012.1
20260506031027 62 169 5.0 7.0 0.00 0.00 0.00 76 1012.0
20260506030525 62 123 4.0 9.0 0.00 0.00 0.00 76 1012.2
20260506030022 62 279 3.0 6.0 0.00 0.00 0.00 75 1012.1
20260506025519 62 240 4.0 9.0 0.00 0.00 0.00 74 1012.3
20260506025015 62 124 3.0 7.0 0.00 0.00 0.00 74 1012.1
20260506024512 62 180 3.0 8.0 0.00 0.00 0.00 74 1012.1
20260506024008 62 232 5.0 7.0 0.00 0.00 0.00 74 1012.2
20260506023504 63 192 4.0 10.0 0.00 0.00 0.00 73 1012.2
20260506023001 63 82 2.0 9.0 0.00 0.00 0.00 73 1012.1
20260506022459 63 196 4.0 6.0 0.00 0.00 0.00 72 1012.2
20260506021957 63 159 1.0 7.0 0.00 0.00 0.00 72 1012.4
20260506021454 63 335 2.0 11.0 0.00 0.00 0.00 72 1012.1
20260506020951 63 267 6.0 11.0 0.00 0.00 0.00 71 1012.0
20260506020449 63 206 2.0 6.0 0.00 0.00 0.00 72 1012.0
20260506015945 63 142 3.0 8.0 0.00 0.00 0.00 71 1011.9
20260506015443 63 204 6.0 7.0 0.00 0.00 0.00 71 1011.8
20260506014940 63 75 4.0 9.0 0.00 0.00 0.00 71 1011.9
20260506014437 63 299 4.0 7.0 0.00 0.00 0.00 72 1011.8
20260506013933 63 183 4.0 7.0 0.00 0.00 0.00 72 1011.8
20260506013432 63 201 3.0 5.0 0.00 0.00 0.00 71 1011.7
20260506012928 63 278 4.0 6.0 0.00 0.00 0.00 71 1011.4
20260506012424 63 214 7.0 11.0 0.00 0.00 0.00 70 1011.4
20260506011921 64 270 5.0 8.0 0.00 0.00 0.00 70 1011.7
20260506011418 63 298 4.0 8.0 0.00 0.00 0.00 70 1011.4
20260506010915 63 145 3.0 6.0 0.00 0.00 0.00 70 1011.5
20260506010414 64 251 6.0 11.0 0.00 0.00 0.00 70 1011.4
20260506005910 63 265 6.0 8.0 0.00 0.00 0.00 70 1011.3
20260506005408 64 252 3.0 10.0 0.00 0.00 0.00 70 1011.3
20260506004902 64 251 7.0 8.0 0.00 0.00 0.00 70 1011.0
20260506004401 63 279 5.0 9.0 0.00 0.00 0.00 70 1010.9
20260506003856 63 244 5.0 7.0 0.00 0.00 0.00 70 1011.1
20260506003353 63 132 1.0 6.0 0.00 0.00 0.00 71 1011.0
20260506002849 63 190 4.0 10.0 0.00 0.00 0.00 69 1010.9
20260506002346 63 209 5.0 8.0 0.00 0.00 0.00 70 1010.9
20260506001841 64 219 3.0 9.0 0.00 0.00 0.00 69 1011.1
20260506001339 64 146 4.0 10.0 0.00 0.00 0.00 69 1011.1
20260506000836 64 215 4.0 8.0 0.00 0.00 0.00 68 1010.7
20260506000334 64 278 8.0 10.0 0.00 0.00 0.00 67 1010.6
20260505235830 64 218 4.0 10.0 0.00 0.00 0.00 67 1010.8
20260505235327 64 263 5.0 10.0 0.00 0.00 0.00 67 1010.5
20260505234824 65 132 2.0 7.0 0.00 0.00 0.00 67 1010.5
20260505234322 64 238 4.0 8.0 0.00 0.00 0.00 67 1010.5
20260505233819 64 279 4.0 10.0 0.00 0.00 0.00 67 1010.5
20260505233317 65 280 5.0 7.0 0.00 0.00 0.00 67 1010.4
20260505232814 65 251 5.0 14.0 0.00 0.00 0.00 66 1010.5
20260505232311 65 215 3.0 7.0 0.00 0.00 0.00 66 1010.5
20260505231808 65 231 3.0 9.0 0.00 0.00 0.00 66 1010.3
20260505231306 66 247 5.0 8.0 0.00 0.00 0.00 66 1010.1
20260505230804 66 170 3.0 8.0 0.00 0.00 0.00 66 1010.1
20260505230300 66 256 7.0 10.0 0.00 0.00 0.00 65 1010.1
20260505225757 67 128 2.0 3.0 0.00 0.00 0.00 65 1010.1
20260505225254 67 121 1.0 6.0 0.00 0.00 0.00 65 1009.9
20260505224749 67 235 9.0 10.0 0.00 0.00 0.00 64 1009.8
20260505224247 68 141 2.0 6.0 0.00 0.00 0.00 64 1010.0
20260505223745 68 176 4.0 14.0 0.00 0.00 0.00 63 1010.1
20260505223241 68 185 4.0 7.0 0.00 0.00 0.00 63 1010.2
20260505222737 68 275 3.0 6.0 0.00 0.00 0.00 63 1010.1
20260505222233 68 248 3.0 11.0 0.00 0.00 0.00 63 1010.2
20260505221731 68 180 2.0 6.0 0.00 0.00 0.00 64 1010.0
20260505221227 68 279 7.0 10.0 0.00 0.00 0.00 63 1010.1
20260505220724 69 209 5.0 8.0 0.00 0.00 0.00 62 1010.1
20260505220222 69 217 4.0 8.0 0.00 0.00 0.00 62 1009.9
20260505215720 69 157 3.0 14.0 0.00 0.00 0.00 63 1010.0
20260505215217 69 271 9.0 13.0 0.00 0.00 0.00 63 1009.8
20260505214714 69 223 4.0 10.0 0.00 0.00 0.00 63 1009.8
20260505214212 69 88 1.0 5.0 0.00 0.00 0.00 63 1009.9
20260505213709 68 111 3.0 7.0 0.00 0.00 0.00 64 1010.0
20260505213206 69 255 5.0 13.0 0.00 0.00 0.00 64 1009.9
20260505212702 69 163 3.0 6.0 0.00 0.00 0.00 64 1010.0
20260505212159 69 197 7.0 13.0 0.00 0.00 0.00 63 1009.8
20260505211656 69 122 4.0 10.0 0.00 0.00 0.00 63 1009.7
20260505211154 69 193 5.0 10.0 0.00 0.00 0.00 62 1009.8
20260505210650 70 146 7.0 8.0 0.00 0.00 0.00 62 1009.8
20260505210147 69 112 3.0 13.0 0.00 0.00 0.00 62 1009.9
20260505205644 69 147 5.0 9.0 0.00 0.00 0.00 63 1009.8
20260505205142 69 157 5.0 9.0 0.00 0.00 0.00 63 1010.0
20260505204639 70 170 8.0 9.0 0.00 0.00 0.00 61 1009.8
20260505204137 71 245 5.0 6.0 0.00 0.00 0.00 62 1009.8
20260505203633 70 255 5.0 9.0 0.00 0.00 0.00 62 1009.6
20260505203131 70 141 4.0 14.0 0.00 0.00 0.00 62 1009.9
20260505202626 71 258 5.0 6.0 0.00 0.00 0.00 62 1009.9
20260505202122 71 93 2.0 7.0 0.00 0.00 0.00 63 1010.0
20260505201619 71 214 4.0 9.0 0.00 0.00 0.00 62 1009.9
20260505201117 70 132 3.0 6.0 0.00 0.00 0.00 63 1009.9
20260505200615 71 201 5.0 8.0 0.00 0.00 0.00 62 1009.9
20260505200111 70 275 5.0 7.0 0.00 0.00 0.00 62 1010.0
20260505195608 70 139 3.0 9.0 0.00 0.00 0.00 63 1010.0
20260505195105 71 242 5.0 13.0 0.00 0.00 0.00 62 1010.3
20260505194602 71 239 5.0 10.0 0.00 0.00 0.00 61 1010.0
20260505194058 71 185 3.0 9.0 0.00 0.00 0.00 62 1010.2
20260505193555 71 245 3.0 13.0 0.00 0.00 0.00 61 1010.1
20260505193052 71 112 3.0 8.0 0.00 0.00 0.00 62 1010.3
20260505192551 71 107 4.0 8.0 0.00 0.00 0.00 62 1010.3
20260505192048 71 305 5.0 13.0 0.00 0.00 0.00 62 1010.5
20260505191546 71 115 5.0 9.0 0.00 0.00 0.00 62 1010.7
20260505191044 71 243 3.0 15.0 0.00 0.00 0.00 61 1010.4
20260505190544 71 242 3.0 10.0 0.00 0.00 0.00 63 1010.8
20260505190040 71 90 4.0 14.0 0.00 0.00 0.00 62 1010.7
20260505185537 72 223 7.0 14.0 0.00 0.00 0.00 61 1010.9
20260505185033 71 236 5.0 9.0 0.00 0.00 0.00 63 1010.8
20260505184530 71 127 3.0 6.0 0.00 0.00 0.00 63 1010.7
20260505184027 71 175 7.0 8.0 0.00 0.00 0.00 62 1010.9
20260505183524 71 213 7.0 10.0 0.00 0.00 0.00 62 1010.7
20260505183021 70 68 3.0 10.0 0.00 0.00 0.00 64 1010.8
20260505182517 71 260 6.0 8.0 0.00 0.00 0.00 61 1010.8
20260505182014 72 226 5.0 10.0 0.00 0.00 0.00 61 1010.8
20260505181511 71 182 3.0 7.0 0.00 0.00 0.00 63 1010.8
20260505181008 71 193 3.0 6.0 0.00 0.00 0.00 63 1010.9
20260505180504 72 161 2.0 6.0 0.00 0.00 0.00 64 1010.7
20260505180001 71 207 6.0 8.0 0.00 0.00 0.00 62 1011.0
20260505175457 72 160 3.0 10.0 0.00 0.00 0.00 63 1010.9
20260505174954 72 157 3.0 9.0 0.00 0.00 0.00 61 1010.7
20260505174451 73 225 4.0 8.0 0.00 0.00 0.00 60 1011.0
20260505173947 72 122 3.0 8.0 0.00 0.00 0.00 62 1010.8
20260505173444 72 180 7.0 13.0 0.00 0.00 0.00 60 1011.2
20260505172941 72 122 5.0 8.0 0.00 0.00 0.00 62 1011.2
20260505172439 72 221 5.0 9.0 0.00 0.00 0.00 61 1011.2
20260505171938 72 176 3.0 6.0 0.00 0.00 0.00 64 1011.1
20260505171435 71 233 6.0 7.0 0.00 0.00 0.00 61 1011.3
20260505170932 72 129 5.0 10.0 0.00 0.00 0.00 61 1011.1
20260505170429 71 267 4.0 8.0 0.00 0.00 0.00 62 1011.2
20260505165924 71 174 3.0 9.0 0.00 0.00 0.00 62 1011.2
20260505165420 71 154 5.0 9.0 0.00 0.00 0.00 61 1011.2
20260505164916 71 183 3.0 11.0 0.00 0.00 0.00 63 1011.0
20260505164413 71 113 1.0 2.0 0.00 0.00 0.00 65 1011.1
20260505163911 71 271 4.0 8.0 0.00 0.00 0.00 62 1011.4
20260505163410 70 247 4.0 8.0 0.00 0.00 0.00 64 1011.4
20260505162908 71 95 5.0 6.0 0.00 0.00 0.00 64 1011.4
20260505162403 71 119 4.0 8.0 0.00 0.00 0.00 64 1011.8
20260505161900 71 92 2.0 6.0 0.00 0.00 0.00 63 1011.8
20260505161357 69 163 2.0 9.0 0.00 0.00 0.00 65 1011.9
20260505160854 69 143 7.0 8.0 0.00 0.00 0.00 64 1011.9
20260505160353 70 109 4.0 11.0 0.00 0.00 0.00 65 1011.8
20260505153331 69 144 2.0 6.0 0.00 0.00 0.00 65 1012.2